TimeEDT,TemperatureF,Dew PointF,Humidity,Sea Level PressureIn,VisibilityMPH,Wind Direction,Wind SpeedMPH,Gust SpeedMPH,PrecipitationIn,Events,Conditions,WindDirDegrees,DateUTC
12:53 AM,37.0,32.0,82,30.29,-9999.0,Calm,Calm,-,N/A,,Unknown,0,2013-03-28 04:53:00
1:53 AM,36.0,33.1,89,30.29,-9999.0,Calm,Calm,-,N/A,,Unknown,0,2013-03-28 05:53:00
2:53 AM,35.1,32.0,89,30.28,-9999.0,Calm,Calm,-,N/A,,Unknown,0,2013-03-28 06:53:00
3:53 AM,34.0,30.9,89,30.27,-9999.0,Calm,Calm,-,N/A,,Unknown,0,2013-03-28 07:53:00
4:53 AM,33.1,28.9,85,30.27,-9999.0,Calm,Calm,-,N/A,,Unknown,0,2013-03-28 08:53:00
5:53 AM,32.0,28.9,88,30.28,-9999.0,Calm,Calm,-,N/A,,Unknown,0,2013-03-28 09:53:00
6:53 AM,32.0,28.0,85,30.29,-9999.0,Calm,Calm,-,N/A,,Unknown,0,2013-03-28 10:53:00
7:53 AM,32.0,28.9,88,30.30,-9999.0,Calm,Calm,-,N/A,,Unknown,0,2013-03-28 11:53:00
8:53 AM,46.0,34.0,63,30.32,-9999.0,North,5.8,-,N/A,,Unknown,360,2013-03-28 12:53:00
9:53 AM,55.0,33.1,43,30.33,-9999.0,NNE,10.4,-,N/A,,Unknown,30,2013-03-28 13:53:00
10:53 AM,60.1,30.9,33,30.34,-9999.0,North,9.2,-,N/A,,Unknown,10,2013-03-28 14:53:00
11:53 AM,63.0,28.9,28,30.33,-9999.0,North,10.4,-,N/A,,Unknown,350,2013-03-28 15:53:00
12:53 PM,64.9,28.9,26,30.31,-9999.0,WNW,3.5,-,N/A,,Unknown,300,2013-03-28 16:53:00
1:53 PM,68.0,28.9,23,30.29,-9999.0,Variable,6.9,-,N/A,,Unknown,0,2013-03-28 17:53:00
2:53 PM,70.0,30.0,23,30.26,-9999.0,North,10.4,19.6,N/A,,Unknown,10,2013-03-28 18:53:00
3:53 PM,71.1,28.9,21,30.23,-9999.0,North,9.2,17.3,N/A,,Unknown,350,2013-03-28 19:53:00
4:53 PM,71.1,28.0,20,30.22,-9999.0,Variable,4.6,-,N/A,,Unknown,0,2013-03-28 20:53:00
5:53 PM,70.0,28.0,21,30.22,-9999.0,Variable,4.6,-,N/A,,Unknown,0,2013-03-28 21:53:00
6:53 PM,69.1,28.9,22,30.23,-9999.0,Variable,3.5,-,N/A,,Unknown,0,2013-03-28 22:53:00
7:53 PM,60.1,33.1,36,30.25,-9999.0,Calm,Calm,-,N/A,,Unknown,0,2013-03-28 23:53:00
8:53 PM,57.0,41.0,55,30.27,-9999.0,Calm,Calm,-,N/A,,Unknown,0,2013-03-29 00:53:00
9:53 PM,53.1,43.0,69,30.28,-9999.0,NW,4.6,-,N/A,,Unknown,310,2013-03-29 01:53:00
10:53 PM,53.1,43.0,69,30.31,-9999.0,NW,4.6,-,N/A,,Unknown,320,2013-03-29 02:53:00
11:53 PM,46.9,42.1,83,30.32,-9999.0,Calm,Calm,-,N/A,,Unknown,0,2013-03-29 03:53:00